Wilmington, DE

11:47 PM EST on November 18, 2019 (GMT -0500)
New Castle County

Weather History for KILG - August, 2019

Change the Weather History Date:

Wednesday, August 14, 2019

  Actual Average Record
Temperature  
Mean Temperature 78 °F 76 °F  
Max Temperature 83 °F 85 °F 96 °F (2002)
Min Temperature 72 °F 67 °F 47 °F (1941)
Degree Days  
Heating Degree Days 0 0  
Month to date heating degree days 0 0  
Since 1 June heating degree days 5 15  
Since 1 July heating degree days 0 0  
Cooling Degree Days 13 11  
Month to date cooling degree days 179 156  
Year to date cooling degree days 1041 833  
Since 1 June cooling degree days 909 754  
Growing Degree Days 28 (Base 50)    
Moisture  
Dew Point 73 °F    
Average Humidity 85    
Maximum Humidity 100    
Minimum Humidity 69    
Precipitation  
Precipitation 0.95 in 0.10 in 4.40 in (1919)
Month to date precipitation 1.89 1.57  
Year to date precipitation 35.35 27.08  
Snow  
Snow 0.00 in 0.00 in 0.00 in (1894)
Month to date snowfall 0.0 0.0  
Since 1 June snowfall 0.0 0.0  
Since 1 July snowfall 0.0 0.0  
Snow Depth 0.00 in    
Sea Level Pressure  
Sea Level Pressure 29.83 in    
Wind  
Wind Speed 5 mph (NE)    
Max Wind Speed 10 mph    
Max Gust Speed 13 mph    
Visibility 5 miles    
Events Rain    
T = Trace of Precipitation, MM = Missing Value Source: NWS Daily Summary

Daily Weather History Graph

Daily Weather History Graph

Search for Another Location

Airport or City:

Astronomy

Aug. 14, 2019 Rise Set
Actual Time 6:13 AM EDT 8:00 PM EDT
Civil Twilight 5:44 AM EDT 8:29 PM EDT
Nautical Twilight 5:09 AM EDT 9:04 PM EDT
Astronomical Twilight 4:31 AM EDT 9:41 PM EDT
Moon 7:52 PM EDT (8/14) 5:09 AM EDT (8/14)
Length of Visible Light 14h 44m
Length of Day
13h 46m
Waxing Gibbous, 99% of the Moon is Illuminated
Aug 14
Waxing Gibbous
Aug 15
Full
Aug 23
Last Quarter
Aug 30
New
Sep 5
First Quarter

Hourly Weather History & Observations

Time (EDT) Temp. Heat Index Dew Point Humidity Pressure Visibility Wind Dir Wind Speed Gust Speed Precip Events Conditions
12:51 AM 75.9 °F - 73.9 °F 94% 29.78 in 7.0 mi ENE 3.5 mph - N/A   Mostly Cloudy
1:05 AM 75.9 °F - 73.9 °F 94% 29.78 in 7.0 mi East 3.5 mph - N/A   Mostly Cloudy
1:51 AM 75.9 °F - 73.9 °F 94% 29.76 in 4.0 mi East 3.5 mph - N/A   Mostly Cloudy
2:51 AM 73.9 °F - 73.0 °F 97% 29.77 in 4.0 mi NNW 3.5 mph - N/A   Mostly Cloudy
3:51 AM 73.9 °F - 73.9 °F 100% 29.77 in 3.0 mi NNE 4.6 mph - 0.00 in Rain Light Rain
4:05 AM 75.0 °F - 73.9 °F 96% 29.77 in 2.5 mi North 4.6 mph - 0.00 in   Mostly Cloudy
4:43 AM 73.0 °F - 73.0 °F 100% 29.76 in - NNE 3.5 mph - N/A   Unknown
4:51 AM 73.0 °F - 73.0 °F 100% 29.75 in 1.5 mi Calm Calm - N/A   Mist
5:05 AM 73.0 °F - 73.0 °F 100% 29.76 in 3.0 mi Calm Calm - N/A   Mist
5:51 AM 73.0 °F - 72.0 °F 96% 29.77 in 6.0 mi NE 5.8 mph - N/A   Mostly Cloudy
6:51 AM 73.0 °F - 72.0 °F 96% 29.79 in 5.0 mi Calm Calm - N/A   Partly Cloudy
7:13 AM 75.0 °F - 73.0 °F 94% 29.79 in 5.0 mi Calm Calm - N/A   Mostly Cloudy
7:51 AM 75.9 °F - 73.9 °F 94% 29.80 in 4.0 mi Calm Calm - N/A   Mostly Cloudy
8:51 AM 77.0 °F - 73.9 °F 90% 29.80 in 2.5 mi NNE 5.8 mph - 0.00 in Rain Light Rain
9:14 AM 75.9 °F - 73.9 °F 94% 29.81 in 1.5 mi North 8.1 mph - 0.01 in Rain Light Rain
9:20 AM 75.9 °F - 73.9 °F 94% 29.81 in 0.8 mi North 5.8 mph - 0.07 in Rain Heavy Rain
9:31 AM 75.0 °F - 73.9 °F 96% 29.81 in 0.8 mi NNW 9.2 mph - 0.22 in Rain Heavy Rain
9:37 AM 75.0 °F - 73.9 °F 96% 29.81 in 1.0 mi North 8.1 mph - 0.27 in Rain Rain
9:51 AM 73.9 °F - 73.9 °F 100% 29.81 in 1.2 mi North 8.1 mph - 0.33 in Rain Heavy Rain
10:14 AM 73.9 °F - 73.0 °F 97% 29.82 in 2.5 mi NNE 3.5 mph - 0.09 in Rain Light Rain
10:51 AM 75.0 °F - 73.0 °F 94% 29.81 in 7.0 mi NE 8.1 mph - 0.09 in   Overcast
11:22 AM 75.0 °F - 73.0 °F 94% 29.82 in 1.8 mi NNE 8.1 mph - 0.02 in Rain Heavy Rain
11:30 AM 73.9 °F - 73.0 °F 97% 29.82 in 2.0 mi ENE 6.9 mph - 0.06 in Rain Light Rain
11:38 AM 75.0 °F - 73.0 °F 94% 29.82 in 6.0 mi ENE 5.8 mph - 0.06 in Rain Light Rain
11:47 AM 75.2 °F - 73.4 °F 94% 29.82 in 3.0 mi NE 5.8 mph - 0.06 in Rain Light Rain
11:51 AM 75.9 °F - 73.0 °F 91% 29.82 in 3.0 mi NNE 5.8 mph - 0.06 in Rain Light Rain
11:57 AM 75.9 °F - 73.0 °F 91% 29.82 in 6.0 mi NE 8.1 mph - 0.00 in Rain Light Rain
12:51 PM 78.1 °F - 73.9 °F 87% 29.82 in 6.0 mi NNE 9.2 mph - 0.01 in   Overcast
1:18 PM 78.1 °F - 73.0 °F 84% 29.83 in 8.0 mi NE 9.2 mph - 0.00 in   Mostly Cloudy
1:51 PM 79.0 °F - 73.0 °F 82% 29.83 in 10.0 mi North 3.5 mph - 0.00 in   Overcast
1:58 PM 79.0 °F - 73.0 °F 82% 29.83 in 10.0 mi NNE 4.6 mph - N/A   Overcast
2:51 PM 81.0 °F 86.2 °F 73.9 °F 79% 29.83 in 10.0 mi NW 5.8 mph - N/A   Overcast
3:00 PM 81.0 °F 85.8 °F 73.0 °F 77% 29.83 in 10.0 mi North 5.8 mph - N/A   Overcast
3:36 PM 82.9 °F 88.0 °F 72.0 °F 69% 29.83 in 10.0 mi Calm Calm - N/A   Overcast
3:51 PM 82.0 °F 87.4 °F 73.0 °F 74% 29.83 in 10.0 mi NE 4.6 mph - N/A   Overcast
4:51 PM 82.9 °F 88.8 °F 73.0 °F 72% 29.83 in 10.0 mi East 6.9 mph - N/A   Mostly Cloudy
5:51 PM 82.0 °F 86.7 °F 72.0 °F 71% 29.83 in 10.0 mi ENE 6.9 mph - N/A   Clear
6:51 PM 82.0 °F 87.4 °F 73.0 °F 74% 29.84 in 10.0 mi East 6.9 mph - N/A   Scattered Clouds
7:51 PM 78.1 °F - 72.0 °F 81% 29.85 in 10.0 mi East 8.1 mph - N/A   Clear
8:51 PM 77.0 °F - 73.0 °F 88% 29.87 in 10.0 mi ESE 4.6 mph - N/A   Clear
9:21 PM 77.0 °F - 73.9 °F 90% 29.91 in 9.0 mi Calm Calm - N/A   Mostly Cloudy
9:30 PM 77.0 °F - 73.9 °F 90% 29.92 in 4.0 mi NNE 4.6 mph - N/A   Overcast
9:36 PM 75.9 °F - 73.9 °F 94% 29.92 in 1.8 mi North 6.9 mph - 0.07 in Rain Heavy Rain
9:48 PM 75.2 °F - 73.4 °F 94% 29.92 in 0.8 mi ENE 5.8 mph - 0.42 in Rain Heavy Rain
9:51 PM 75.0 °F - 73.9 °F 96% 29.92 in 1.2 mi East 5.8 mph - 0.44 in Rain Heavy Rain
9:54 PM 75.0 °F - 73.9 °F 96% 29.92 in 2.0 mi East 4.6 mph - 0.00 in Rain Rain
9:57 PM 75.0 °F - 73.9 °F 96% 29.92 in 3.0 mi ESE 4.6 mph - 0.01 in Rain Rain
10:51 PM 75.0 °F - 73.9 °F 96% 29.92 in 5.0 mi SSE 4.6 mph - 0.02 in   Overcast
11:51 PM 75.0 °F - 73.9 °F 96% 29.92 in 7.0 mi East 4.6 mph - 0.00 in   Scattered Clouds